When you browse on this site, cookies collect data to enhance your experience and personalize the content and advertising you see.
Visit our Privacy Policy to learn more. By continuing to use the site, you agree to this use of cookies and data.
  • En España
  • Lista de países
  • Para 7 días
  • Temperatura del agua
  • El tiempo en el mapa
  • Informadores
  • user-avatar
    Iniciar sesión

    Tiempo cada hora Mostar

    Hoy, 22 Febrero, Sábado

    Tiempo Temperatura Precipitaciones Viento Presión Humedad
    00:00 +5°C° 0 mm 2 mps 764 mmHg 70%
    01:00 +4°C° 0 mm 2 mps 764 mmHg 70%
    02:00 +4°C° 0 mm 2 mps 764 mmHg 71%
    03:00 +4°C° 0 mm 2 mps 764 mmHg 71%
    04:00 +4°C° 0 mm 2 mps 765 mmHg 71%
    05:00 +2°C° 0 mm 3 mps 765 mmHg 71%
    06:00 +2°C° 0 mm 3 mps 765 mmHg 71%
    07:00 +2°C° 0 mm 3 mps 766 mmHg 71%
    08:00 +4°C° 0 mm 3 mps 766 mmHg 64%
    09:00 +5°C° 0 mm 3 mps 766 mmHg 56%
    10:00 +8°C° 0 mm 3 mps 766 mmHg 48%
    11:00 +9°C° 0 mm 3 mps 766 mmHg 44%
    12:00 +10°C° 0 mm 3 mps 766 mmHg 39%
    13:00 +12°C° 0 mm 2 mps 766 mmHg 34%
    14:00 +12°C° 0 mm 2 mps 766 mmHg 38%
    15:00 +12°C° 0 mm 2 mps 765 mmHg 41%
    16:00 +12°C° 0 mm 2 mps 765 mmHg 44%
    17:00 +11°C° 0 mm 1 mps 765 mmHg 48%
    18:00 +9°C° 0 mm 1 mps 765 mmHg 51%
    19:00 +8°C° 0 mm 1 mps 765 mmHg 55%
    20:00 +8°C° 0 mm 1 mps 766 mmHg 54%
    21:00 +8°C° 0 mm 1 mps 766 mmHg 54%
    22:00 +7°C° 0 mm 1 mps 766 mmHg 54%
    23:00 +7°C° 0 mm 1 mps 765 mmHg 53%

    Mañana, 23 Febrero, Domingo

    Tiempo Temperatura Precipitaciones Viento Presión Humedad
    00:00 +7°C° 0 mm 1 mps 765 mmHg 52%
    01:00 +7°C° 0 mm 1 mps 765 mmHg 51%
    02:00 +7°C° 0 mm 1 mps 764 mmHg 50%
    03:00 +7°C° 0 mm 1 mps 764 mmHg 50%
    04:00 +7°C° 0 mm 1 mps 763 mmHg 49%
    05:00 +7°C° 0 mm 1 mps 763 mmHg 49%
    06:00 +7°C° 0 mm 1 mps 763 mmHg 49%
    07:00 +7°C° 0 mm 1 mps 763 mmHg 49%
    08:00 +9°C° 0 mm 1 mps 763 mmHg 47%
    09:00 +11°C° 0 mm 1 mps 763 mmHg 45%
    10:00 +13°C° 0 mm 1 mps 763 mmHg 43%
    11:00 +14°C° 0 mm 1 mps 762 mmHg 43%
    12:00 +14°C° 0 mm 1 mps 762 mmHg 44%
    13:00 +15°C° 0 mm 1 mps 761 mmHg 44%
    14:00 +14°C° 0 mm 1 mps 761 mmHg 48%
    15:00 +14°C° 0 mm 1 mps 760 mmHg 52%
    16:00 +13°C° 0 mm 1 mps 760 mmHg 55%
    17:00 +12°C° 0 mm 1 mps 760 mmHg 60%
    18:00 +11°C° 0 mm 1 mps 760 mmHg 66%
    19:00 +8°C° 0 mm 0 mps 760 mmHg 71%
    20:00 +8°C° 0 mm 0 mps 760 mmHg 71%
    21:00 +8°C° 0 mm 0 mps 760 mmHg 72%
    22:00 +8°C° 0 mm 0 mps 760 mmHg 73%
    23:00 +8°C° 0 mm 0 mps 759 mmHg 74%

    Pasado mañana, 24 Febrero, Lunes

    Tiempo Temperatura Precipitaciones Viento Presión Humedad
    00:00 +7°C° 0 mm 0 mps 759 mmHg 76%
    01:00 +7°C° 0 mm 0 mps 759 mmHg 77%
    02:00 +8°C° 0 mm 1 mps 759 mmHg 78%
    03:00 +8°C° 0 mm 1 mps 758 mmHg 79%
    04:00 +8°C° 0 mm 1 mps 758 mmHg 80%
    05:00 +8°C° 0 mm 1 mps 758 mmHg 80%
    06:00 +8°C° 0 mm 1 mps 758 mmHg 81%
    07:00 +8°C° 0 mm 1 mps 759 mmHg 81%
    08:00 +10°C° 0 mm 1 mps 759 mmHg 77%
    09:00 +11°C° 0 mm 1 mps 760 mmHg 72%
    10:00 +13°C° 0 mm 1 mps 760 mmHg 67%
    11:00 +14°C° 0 mm 2 mps 760 mmHg 64%
    12:00 +15°C° 0 mm 2 mps 760 mmHg 60%
    13:00 +17°C° 0 mm 2 mps 760 mmHg 57%
    14:00 +16°C° 0 mm 3 mps 760 mmHg 59%
    15:00 +16°C° 0 mm 3 mps 759 mmHg 60%
    16:00 +14°C° 0 mm 3 mps 759 mmHg 62%
    17:00 +14°C° 0 mm 2 mps 759 mmHg 65%
    18:00 +12°C° 0 mm 2 mps 760 mmHg 68%
    19:00 +10°C° 0 mm 2 mps 760 mmHg 72%
    20:00 +10°C° 0 mm 2 mps 760 mmHg 70%
    21:00 +9°C° 0 mm 2 mps 760 mmHg 68%
    22:00 +9°C° 0 mm 2 mps 759 mmHg 66%
    23:00 +9°C° 0 mm 2 mps 759 mmHg 63%

    25 Febrero, Martes

    Tiempo Temperatura Precipitaciones Viento Presión Humedad
    00:00 +8°C° 0 mm 2 mps 759 mmHg 61%
    01:00 +8°C° 0 mm 2 mps 758 mmHg 59%
    02:00 +8°C° 0 mm 2 mps 758 mmHg 57%
    03:00 +8°C° 0 mm 2 mps 757 mmHg 56%
    04:00 +8°C° 0 mm 2 mps 757 mmHg 55%
    05:00 +8°C° 0 mm 2 mps 757 mmHg 55%
    06:00 +8°C° 0 mm 2 mps 756 mmHg 56%
    07:00 +10°C° 0 mm 1 mps 756 mmHg 56%
    08:00 +10°C° 0 mm 2 mps 756 mmHg 55%
    09:00 +13°C° 0 mm 2 mps 755 mmHg 53%
    10:00 +14°C° 0 mm 2 mps 755 mmHg 52%
    11:00 +15°C° 0 mm 2 mps 754 mmHg 52%
    12:00 +14°C° 0 mm 3 mps 754 mmHg 52%
    13:00 +16°C° 0 mm 3 mps 753 mmHg 52%
    14:00 +15°C° 0 mm 4 mps 753 mmHg 57%
    15:00 +14°C° 0 mm 4 mps 752 mmHg 61%
    16:00 +14°C° 0 mm 5 mps 752 mmHg 66%
    17:00 +13°C° 0.1 mm 4 mps 752 mmHg 74%
    18:00 +13°C° 0.1 mm 4 mps 751 mmHg 82%
    19:00 +12°C° 0.1 mm 3 mps 751 mmHg 90%
    20:00 +12°C° 0.2 mm 3 mps 751 mmHg 91%
    21:00 +12°C° 0.2 mm 3 mps 751 mmHg 92%
    22:00 +13°C° 0.2 mm 2 mps 750 mmHg 93%
    23:00 +12°C° 0.3 mm 3 mps 750 mmHg 93%

    26 Febrero, Miércoles

    Tiempo Temperatura Precipitaciones Viento Presión Humedad
    00:00 +12°C° 0.3 mm 3 mps 749 mmHg 94%
    01:00 +11°C° 0.3 mm 3 mps 749 mmHg 94%
    02:00 +11°C° 0.2 mm 3 mps 748 mmHg 94%
    03:00 +12°C° 0.2 mm 2 mps 747 mmHg 93%
    04:00 +12°C° 0.2 mm 2 mps 746 mmHg 92%
    05:00 +12°C° 0.2 mm 2 mps 746 mmHg 92%
    06:00 +12°C° 0.2 mm 2 mps 745 mmHg 93%
    07:00 +12°C° 0.2 mm 2 mps 745 mmHg 93%
    08:00 +12°C° 0.3 mm 2 mps 744 mmHg 90%
    09:00 +12°C° 0.3 mm 3 mps 744 mmHg 87%
    10:00 +12°C° 0.3 mm 4 mps 744 mmHg 83%
    11:00 +13°C° 0.5 mm 4 mps 743 mmHg 82%
    12:00 +13°C° 0.5 mm 4 mps 742 mmHg 81%
    13:00 +13°C° 0.5 mm 4 mps 742 mmHg 80%
    14:00 +13°C° 0.8 mm 3 mps 741 mmHg 81%
    15:00 +12°C° 0.8 mm 3 mps 741 mmHg 81%
    16:00 +13°C° 0.8 mm 2 mps 740 mmHg 82%
    17:00 +12°C° 0.5 mm 2 mps 740 mmHg 84%
    18:00 +12°C° 0.5 mm 1 mps 740 mmHg 85%
    19:00 +11°C° 0.5 mm 1 mps 740 mmHg 87%
    20:00 +9°C° 0.6 mm 2 mps 740 mmHg 87%
    21:00 +9°C° 0.6 mm 2 mps 740 mmHg 87%
    22:00 +9°C° 0.6 mm 3 mps 740 mmHg 87%
    23:00 +8°C° 0.4 mm 3 mps 740 mmHg 86%

    27 Febrero, Jueves

    Tiempo Temperatura Precipitaciones Viento Presión Humedad
    00:00 +7°C° 0.4 mm 3 mps 740 mmHg 85%
    01:00 +7°C° 0.4 mm 3 mps 740 mmHg 84%
    02:00 +5°C° 0.8 mm 4 mps 741 mmHg 82%
    03:00 +3°C° 0.8 mm 5 mps 742 mmHg 79%
    04:00 +3°C° 0.8 mm 6 mps 743 mmHg 76%
    05:00 +3°C° 0 mm 6 mps 744 mmHg 74%
    06:00 +2°C° 0 mm 6 mps 745 mmHg 71%
    07:00 +2°C° 0 mm 6 mps 746 mmHg 69%
    08:00 +3°C° 0 mm 6 mps 747 mmHg 63%
    09:00 +4°C° 0 mm 6 mps 749 mmHg 58%
    10:00 +4°C° 0 mm 6 mps 750 mmHg 52%
    11:00 +5°C° 0 mm 6 mps 750 mmHg 50%
    12:00 +7°C° 0 mm 6 mps 751 mmHg 47%
    13:00 +7°C° 0 mm 6 mps 751 mmHg 45%
    14:00 +7°C° 0 mm 6 mps 752 mmHg 46%
    15:00 +7°C° 0 mm 6 mps 752 mmHg 47%
    16:00 +7°C° 0 mm 6 mps 752 mmHg 47%
    17:00 +6°C° 0 mm 5 mps 753 mmHg 53%
    18:00 +5°C° 0 mm 5 mps 754 mmHg 58%
    19:00 +4°C° 0 mm 4 mps 755 mmHg 64%
    20:00 +3°C° 0 mm 4 mps 755 mmHg 65%
    21:00 +3°C° 0 mm 3 mps 756 mmHg 66%
    22:00 +3°C° 0 mm 3 mps 757 mmHg 67%
    23:00 +3°C° 0 mm 2 mps 757 mmHg 67%
    Mostrar más